FW8718 Weather Reports


time (UTC)temp
C
wind
direction
speed
KPH
gust
KPH
rain 1hr
cm
rain 24hr
cm
rain mn
cm
humidity
%
barometer
mb
20260505140516 0 9 3.2 14.5 0.00 0.08 0.03 91 1016.6
20260505130104 3 9 0.0 6.4 0.00 0.08 0.03 91 1015.5
20260505125015 3 193 0.0 0.0 0.00 0.08 0.03 91 1015.4
20260505124541 3 193 0.0 0.0 0.00 0.08 0.03 91 1015.4
20260505124017 3 193 0.0 0.0 0.00 0.08 0.03 91 1015.4
20260505123514 3 193 0.0 0.0 0.00 0.08 0.03 91 1015.2
20260505123043 3 193 0.0 0.0 0.00 0.08 0.03 91 1015.2
20260505122514 3 193 0.0 0.0 0.00 0.08 0.03 91 1015.0
20260505122017 3 193 0.0 0.0 0.00 0.08 0.03 91 1014.9
20260505121543 3 193 0.0 0.0 0.00 0.08 0.03 91 1014.7
20260505121016 3 193 0.0 0.0 0.00 0.08 0.03 91 1014.7
20260505120516 3 193 0.0 0.0 0.00 0.08 0.03 91 1014.7
20260505120040 3 193 0.0 4.8 0.00 0.08 0.03 91 1014.7
20260505115517 3 193 0.0 4.8 0.00 0.08 0.03 92 1014.6
20260505115015 3 186 0.0 6.4 0.00 0.08 0.03 92 1014.7
20260505114540 3 199 1.6 6.4 0.00 0.08 0.03 92 1014.7
20260505114017 3 198 0.0 3.2 0.00 0.08 0.03 92 1014.6
20260505113514 3 172 0.0 4.8 0.00 0.08 0.03 92 1014.7
20260505113053 3 172 0.0 6.4 0.00 0.08 0.03 92 1014.6
20260505112519 3 227 0.0 6.4 0.00 0.08 0.03 92 1014.6
20260505112016 3 177 0.0 6.4 0.00 0.08 0.03 93 1014.5
20260505111548 3 174 1.6 9.7 0.00 0.08 0.03 93 1014.4
20260505111015 3 175 1.6 6.4 0.00 0.08 0.03 93 1014.6
20260505110514 3 188 0.0 8.0 0.00 0.08 0.03 93 1014.5
20260505102016 3 133 0.0 3.2 0.00 0.08 0.03 93 1014.3
20260505101553 3 133 0.0 3.2 0.00 0.08 0.03 93 1014.2
20260505101017 3 130 0.0 3.2 0.00 0.08 0.03 93 1014.4
20260505100519 3 130 0.0 3.2 0.00 0.08 0.03 93 1014.4
20260505100049 3 130 0.0 3.2 0.00 0.08 0.03 93 1014.4
20260505095516 3 130 0.0 0.0 0.00 0.08 0.03 93 1014.3
20260505095017 3 130 0.0 0.0 0.00 0.08 0.03 93 1014.3
20260505094542 3 130 0.0 0.0 0.00 0.08 0.03 93 1014.4
20260505094017 3 130 0.0 1.6 0.00 0.08 0.03 92 1014.4
20260505093516 3 130 0.0 3.2 0.00 0.08 0.03 92 1014.3
20260505093049 3 130 0.0 3.2 0.00 0.08 0.03 92 1014.0
20260505092520 3 130 0.0 4.8 0.00 0.08 0.03 93 1014.1
20260505092016 3 130 0.0 4.8 0.00 0.08 0.03 92 1014.2
20260505091544 3 130 0.0 6.4 0.00 0.08 0.03 92 1014.4
20260505091019 3 130 0.0 6.4 0.00 0.08 0.03 92 1014.2
20260505090516 4 132 1.6 4.8 0.00 0.08 0.03 92 1014.2
20260505090048 4 134 0.0 4.8 0.00 0.08 0.03 93 1014.3
20260505085516 4 144 0.0 4.8 0.00 0.08 0.03 93 1014.3
20260505085017 4 144 0.0 4.8 0.00 0.08 0.03 93 1014.5
20260505084545 4 50 0.0 3.2 0.00 0.08 0.03 93 1014.7
20260505084016 4 5 0.0 0.0 0.00 0.08 0.03 93 1014.9
20260505083516 4 5 0.0 0.0 0.00 0.08 0.03 93 1014.9
20260505083042 4 5 0.0 0.0 0.00 0.08 0.03 93 1015.0
20260505082515 4 5 0.0 0.0 0.00 0.08 0.03 93 1015.0
20260505082018 4 5 0.0 1.6 0.00 0.08 0.03 92 1015.2
20260505081608 4 5 0.0 1.6 0.00 0.08 0.03 92 1015.2
20260505081016 4 5 0.0 0.0 0.00 0.08 0.03 92 1015.0
20260505080521 4 5 0.0 0.0 0.00 0.08 0.03 92 1015.0
20260505080104 4 5 0.0 0.0 0.00 0.08 0.03 92 1015.2
20260505075515 4 5 0.0 0.0 0.00 0.08 0.03 92 1015.2
20260505075021 4 5 0.0 3.2 0.03 0.08 0.03 92 1015.3
20260505074546 4 5 0.0 3.2 0.03 0.08 0.03 92 1015.3
20260505074016 5 5 0.0 1.6 0.03 0.08 0.03 92 1015.3
20260505073516 5 5 0.0 4.8 0.03 0.08 0.03 92 1015.4
20260505073050 5 5 0.0 6.4 0.03 0.08 0.03 92 1015.3
20260505072516 5 61 0.0 6.4 0.03 0.08 0.03 92 1015.4
20260505072015 5 49 0.0 3.2 0.03 0.08 0.03 92 1015.4
20260505071551 5 45 0.0 8.0 0.03 0.08 0.03 92 1015.5
20260505071016 5 86 1.6 8.0 0.03 0.08 0.03 92 1015.4
20260505070517 5 269 0.0 1.6 0.03 0.08 0.03 92 1015.6
20260505070055 5 265 0.0 0.0 0.03 0.08 0.03 92 1015.7
20260505065516 5 265 0.0 0.0 0.03 0.08 0.03 92 1015.7
20260505065016 5 265 0.0 0.0 0.00 0.05 0.00 91 1015.7
20260505064549 5 265 0.0 0.0 0.03 0.05 0.00 91 1015.7
20260505064019 5 265 0.0 1.6 0.03 0.05 0.00 91 1015.6
20260505063516 5 265 0.0 4.8 0.03 0.05 0.00 91 1015.6
20260505063047 5 265 0.0 4.8 0.03 0.05 0.00 91 1015.6
20260505062516 5 48 0.0 3.2 0.03 0.05 0.00 90 1015.4
20260505062015 5 39 0.0 4.8 0.03 0.05 0.00 90 1015.4
20260505061544 5 60 1.6 6.4 0.03 0.05 0.00 90 1015.4
20260505061022 5 69 0.0 6.4 0.03 0.05 0.00 90 1015.5
20260505060515 5 13 0.0 1.6 0.03 0.05 0.00 89 1015.8
20260505060055 5 13 0.0 6.4 0.03 0.05 0.00 89 1015.9
20260505055516 5 13 0.0 6.4 0.03 0.05 0.05 88 1016.0
20260505055016 5 69 1.6 6.4 0.03 0.05 0.05 88 1015.9
20260505054553 5 53 0.0 4.8 0.00 0.03 0.03 87 1016.1
20260505054017 5 335 0.0 3.2 0.00 0.03 0.03 87 1016.1
20260505053515 5 331 0.0 4.8 0.00 0.03 0.03 86 1015.9
20260505053102 5 321 0.0 4.8 0.00 0.03 0.03 86 1016.0
20260505052519 5 10 0.0 6.4 0.00 0.03 0.03 86 1016.1
20260505052016 5 9 0.0 6.4 0.00 0.03 0.03 85 1016.1
20260505051548 5 5 0.0 4.8 0.00 0.03 0.03 85 1016.1
20260505051016 5 5 0.0 4.8 0.00 0.03 0.03 84 1016.1
20260505050518 5 5 0.0 3.2 0.00 0.03 0.03 84 1015.9
20260505041557 5 26 3.2 9.7 0.00 0.03 0.03 83 1015.2
20260505041017 5 40 1.6 9.7 0.00 0.03 0.03 83 1014.9
20260505040518 5 31 1.6 9.7 0.00 0.03 0.03 83 1015.0
20260505035517 5 35 0.0 9.7 0.00 0.03 0.03 84 1014.8
20260505035018 5 61 1.6 9.7 0.00 0.03 0.03 84 1014.7
20260505034550 5 5 1.6 8.0 0.00 0.03 0.03 84 1015.0
20260505034020 5 49 1.6 9.7 0.00 0.03 0.03 85 1015.2
20260505033517 5 42 0.0 9.7 0.00 0.03 0.03 85 1015.3
20260505033052 5 30 0.0 9.7 0.00 0.03 0.03 85 1015.2
20260505032517 5 19 1.6 12.9 0.00 0.03 0.03 85 1015.1
20260505032019 5 5 3.2 12.9 0.00 0.03 0.03 85 1014.9
20260505031600 5 327 1.6 12.9 0.00 0.03 0.03 85 1014.9
20260505031018 5 53 3.2 12.9 0.00 0.03 0.03 86 1015.0
20260505030519 5 349 1.6 8.0 0.00 0.03 0.03 86 1015.0
20260505030112 5 327 1.6 8.0 0.00 0.03 0.03 86 1015.0
20260505025517 5 37 0.0 4.8 0.00 0.03 0.03 87 1015.2
20260505025016 5 22 0.0 3.2 0.00 0.03 0.03 86 1015.3
20260505024602 5 24 0.0 1.6 0.00 0.03 0.03 86 1015.2
20260505024016 5 24 0.0 0.0 0.03 0.03 0.03 86 1015.1
20260505023517 5 25 0.0 0.0 0.03 0.03 0.03 85 1015.2
20260505023057 5 25 0.0 3.2 0.03 0.03 0.03 85 1015.0
20260505022518 5 25 0.0 6.4 0.03 0.03 0.03 85 1014.9
20260505022017 5 5 0.0 6.4 0.03 0.03 0.03 85 1014.8
20260505021559 6 74 0.0 4.8 0.03 0.03 0.03 84 1014.9
20260505021016 6 74 0.0 4.8 0.03 0.03 0.03 83 1015.0
20260505020516 6 63 0.0 1.6 0.03 0.03 0.03 82 1015.1
20260505020107 6 63 0.0 1.6 0.03 0.03 0.03 82 1015.0
20260505015519 6 63 0.0 1.6 0.03 0.03 0.03 80 1014.9
20260505015021 6 63 0.0 6.4 0.03 0.03 0.03 78 1014.9
20260505014555 7 63 1.6 9.7 0.03 0.03 0.03 76 1014.7
20260505014016 7 5 0.0 9.7 0.00 0.00 0.00 73 1014.7
20260505013516 8 80 1.6 17.7 0.00 0.00 0.00 68 1015.0
20260505013059 9 12 4.8 17.7 0.00 0.00 0.00 61 1015.2
20260505012519 10 309 1.6 8.0 0.00 0.00 0.00 56 1014.6
20260505012018 10 59 1.6 8.0 0.00 0.00 0.00 54 1014.5
20260505011601 10 345 3.2 12.9 0.00 0.00 0.00 53 1014.5
20260505011017 10 310 1.6 16.1 0.00 0.00 0.00 54 1014.6
20260505010518 10 12 6.4 16.1 0.00 0.00 0.00 53 1014.5
20260505010115 10 18 3.2 17.7 0.00 0.00 0.00 53 1014.1
20260505005517 10 360 3.2 19.3 0.00 0.00 0.00 52 1013.9
20260505005017 10 344 4.8 19.3 0.00 0.00 0.00 51 1013.8
20260505004601 10 24 3.2 16.1 0.00 0.00 0.00 49 1013.7
20260505004016 11 298 6.4 14.5 0.00 0.00 0.00 49 1013.8
20260505003516 11 28 3.2 17.7 0.00 0.00 0.00 48 1013.2
20260505003106 11 355 8.0 17.7 0.00 0.00 0.00 47 1013.2
20260505002517 11 39 4.8 16.1 0.00 0.00 0.00 46 1013.3
20260505002017 11 301 3.2 20.9 0.00 0.00 0.00 46 1013.2
20260505001016 12 80 3.2 12.9 0.00 0.00 0.00 43 1013.3
20260505000521 12 53 3.2 12.9 0.00 0.00 0.00 43 1013.2
20260505000113 12 5 3.2 19.3 0.00 0.00 0.00 42 1013.2
20260504235517 13 65 6.4 19.3 0.00 0.00 0.00 41 1013.2
20260504235017 13 12 3.2 22.5 0.00 0.00 0.00 41 1013.2
20260504234608 13 315 6.4 20.9 0.00 0.00 0.00 39 1013.0
20260504234016 13 337 6.4 19.3 0.00 0.00 0.00 40 1013.1
20260504233517 13 296 3.2 17.7 0.00 0.00 0.00 40 1013.2
20260504233112 13 68 6.4 19.3 0.00 0.00 0.00 38 1013.0
20260504232519 14 26 3.2 16.1 0.00 0.00 0.00 39 1013.2
20260504232018 14 337 3.2 17.7 0.00 0.00 0.00 41 1013.1
20260504231620 14 344 8.0 17.7 0.00 0.00 0.00 39 1013.2
20260504231018 14 309 3.2 14.5 0.00 0.00 0.00 40 1013.3
20260504230517 13 26 3.2 11.3 0.00 0.00 0.00 42 1013.4
20260504230115 13 57 4.8 14.5 0.00 0.00 0.00 41 1013.3
20260504225521 12 11 4.8 14.5 0.00 0.00 0.00 43 1013.2
20260504225017 12 336 1.6 16.1 0.00 0.00 0.00 43 1013.2
20260504224613 12 346 1.6 27.4 0.00 0.00 0.00 41 1013.4
20260504224018 13 65 6.4 27.4 0.00 0.00 0.00 42 1013.9
20260504223518 15 5 3.2 9.7 0.00 0.00 0.00 34 1013.1
20260504223109 15 297 3.2 6.4 0.00 0.00 0.00 34 1013.0
20260504222517 15 215 1.6 6.4 0.00 0.00 0.00 34 1013.0
20260504222018 15 205 0.0 8.0 0.00 0.00 0.00 32 1013.0
20260504221622 15 207 1.6 12.9 0.00 0.00 0.00 32 1012.7
20260504221018 15 127 4.8 14.5 0.00 0.00 0.00 33 1012.7
20260504220517 15 137 4.8 16.1 0.00 0.00 0.00 32 1012.7
20260504220124 16 132 6.4 12.9 0.00 0.00 0.00 32 1012.7
20260504215519 16 185 4.8 17.7 0.00 0.00 0.00 33 1012.5
20260504215019 16 261 3.2 16.1 0.00 0.00 0.00 32 1012.5
20260504214717 16 210 4.8 16.1 0.00 0.00 0.00 33 1012.5
20260504214215 16 80 3.2 8.0 0.00 0.00 0.00 31 1012.5
20260504213711 16 225 4.8 9.7 0.00 0.00 0.00 30 1012.7
20260504213040 16 84 0.0 6.4 0.00 0.00 0.00 28 1012.5
20260504212510 16 74 3.2 11.3 0.00 0.00 0.00 28 1012.5
20260504212013 16 79 3.2 11.3 0.00 0.00 0.00 29 1012.7
20260504211538 16 58 1.6 12.9 0.00 0.00 0.00 28 1012.7
20260504211013 16 355 1.6 14.5 0.00 0.00 0.00 27 1012.8
20260504210514 16 69 4.8 17.7 0.00 0.00 0.00 28 1012.7
20260504210037 16 307 4.8 17.7 0.00 0.00 0.00 27 1012.4
20260504205514 17 75 4.8 14.5 0.00 0.00 0.00 28 1012.5
20260504205013 17 329 4.8 14.5 0.00 0.00 0.00 28 1012.5
20260504204535 17 15 1.6 27.4 0.00 0.00 0.00 28 1012.7
20260504204011 17 344 3.2 19.3 0.00 0.00 0.00 29 1013.0
20260504203512 18 288 4.8 12.9 0.00 0.00 0.00 27 1013.0
20260504203035 18 229 1.6 9.7 0.00 0.00 0.00 26 1013.0
20260504202513 18 241 3.2 11.3 0.00 0.00 0.00 24 1013.0
20260504202012 18 221 3.2 11.3 0.00 0.00 0.00 27 1013.0
20260504201537 17 177 3.2 16.1 0.00 0.00 0.00 27 1013.0
20260504201013 17 136 4.8 16.1 0.00 0.00 0.00 28 1013.2
20260504200513 17 211 4.8 16.1 0.00 0.00 0.00 30 1013.2
20260504200041 17 227 3.2 12.9 0.00 0.00 0.00 27 1013.1
20260504195513 16 193 1.6 6.4 0.00 0.00 0.00 27 1013.2
20260504195014 16 329 1.6 4.8 0.00 0.00 0.00 24 1013.2
20260504194541 16 116 0.0 9.7 0.00 0.00 0.00 25 1013.1
20260504194014 16 117 3.2 9.7 0.00 0.00 0.00 24 1013.3
20260504193512 16 123 0.0 6.4 0.00 0.00 0.00 24 1013.4
20260504193035 16 103 0.0 4.8 0.00 0.00 0.00 25 1013.5
20260504192513 16 109 0.0 4.8 0.00 0.00 0.00 26 1013.4
20260504192011 16 109 1.6 8.0 0.00 0.00 0.00 25 1013.3
20260504191549 17 321 3.2 12.9 0.00 0.00 0.00 25 1013.3
20260504191013 17 67 3.2 12.9 0.00 0.00 0.00 25 1013.4
20260504190511 17 288 3.2 8.0 0.00 0.00 0.00 24 1013.5
20260504190033 17 137 1.6 6.4 0.00 0.00 0.00 23 1013.5
20260504185513 18 126 1.6 6.4 0.00 0.00 0.00 22 1013.7
20260504185012 18 86 1.6 14.5 0.00 0.00 0.00 20 1013.7
20260504184548 19 79 4.8 17.7 0.00 0.00 0.00 22 1013.6
20260504184012 18 218 4.8 12.9 0.00 0.00 0.00 24 1013.7
20260504183512 18 148 4.8 12.9 0.00 0.00 0.00 22 1013.7
20260504183041 17 113 3.2 9.7 0.00 0.00 0.00 23 1014.1
20260504182511 16 157 3.2 9.7 0.00 0.00 0.00 24 1014.1
20260504182013 16 175 4.8 12.9 0.00 0.00 0.00 25 1014.2
20260504181544 16 265 4.8 16.1 0.00 0.00 0.00 25 1014.2
20260504181013 16 253 4.8 16.1 0.00 0.00 0.00 25 1014.2
20260504180515 17 217 0.0 12.9 0.00 0.00 0.00 23 1014.2
20260504180034 16 286 3.2 12.9 0.00 0.00 0.00 28 1014.2
20260504175511 16 271 3.2 14.5 0.00 0.00 0.00 26 1014.2
20260504175014 17 238 4.8 12.9 0.00 0.00 0.00 25 1014.3
20260504174530 17 323 1.6 8.0 0.00 0.00 0.00 25 1014.5
20260504174014 17 227 3.2 14.5 0.00 0.00 0.00 29 1014.4
20260504173512 17 284 1.6 14.5 0.00 0.00 0.00 28 1014.7
20260504173037 17 279 3.2 19.3 0.00 0.00 0.00 26 1015.0
20260504172511 17 205 3.2 19.3 0.00 0.00 0.00 29 1015.1
20260504172012 17 294 8.0 19.3 0.00 0.00 0.00 28 1015.1
20260504171535 17 223 4.8 14.5 0.00 0.00 0.00 33 1015.2
20260504171018 16 319 6.4 25.7 0.00 0.00 0.00 32 1015.2
20260504170515 16 284 6.4 16.1 0.00 0.00 0.00 33 1015.2
20260504151014 13 206 6.4 30.6 0.00 0.00 0.00 36 1015.9
20260504150516 13 5 11.3 30.6 0.00 0.00 0.00 34 1015.8